TimeHST,TemperatureF,Dew PointF,Humidity,Sea Level PressureIn,VisibilityMPH,Wind Direction,Wind SpeedMPH,Gust SpeedMPH,PrecipitationIn,Events,Conditions,WindDirDegrees,DateUTC
12:56 AM,66.9,63.9,90,29.98,10.0,NE,6.9,-,N/A,,Clear,50,2013-10-10 10:56:00
1:56 AM,68.9,65.8,90,29.96,10.0,NNE,10.4,-,N/A,,Clear,30,2013-10-10 11:56:00
2:56 AM,68.0,64.9,90,29.95,10.0,NE,4.6,-,N/A,,Clear,50,2013-10-10 12:56:00
3:56 AM,68.0,65.8,93,29.94,10.0,ESE,8.1,-,N/A,,Clear,110,2013-10-10 13:56:00
4:56 AM,65.8,63.9,93,29.96,10.0,East,8.1,-,N/A,,Clear,90,2013-10-10 14:56:00
5:56 AM,68.9,64.9,87,29.98,10.0,East,8.1,-,N/A,,Clear,80,2013-10-10 15:56:00
6:56 AM,70.0,66.9,90,29.99,10.0,NE,11.5,-,N/A,,Clear,50,2013-10-10 16:56:00
7:56 AM,73.9,66.9,79,29.99,10.0,ENE,11.5,-,N/A,,Clear,70,2013-10-10 17:56:00
8:56 AM,79.0,65.8,64,30.00,10.0,NE,5.8,-,N/A,,Clear,40,2013-10-10 18:56:00
9:37 AM,77.0,64.4,65,30.07,10.0,South,8.1,-,N/A,,Mostly Cloudy,170,2013-10-10 19:37:00
9:56 AM,79.9,64.9,60,30.00,10.0,SE,5.8,-,N/A,,Mostly Cloudy,130,2013-10-10 19:56:00
10:27 AM,80.6,66.2,61,30.06,10.0,SSE,9.2,-,N/A,,Scattered Clouds,150,2013-10-10 20:27:00
10:56 AM,81.9,63.9,54,29.99,10.0,South,8.1,-,N/A,,Partly Cloudy,170,2013-10-10 20:56:00
11:56 AM,82.9,63.9,52,29.97,10.0,SSW,6.9,-,N/A,,Clear,200,2013-10-10 21:56:00
12:56 PM,81.9,64.9,56,29.96,10.0,West,8.1,-,N/A,,Mostly Cloudy,260,2013-10-10 22:56:00
1:42 PM,82.4,66.2,58,30.00,10.0,North,9.2,-,N/A,,Mostly Cloudy,360,2013-10-10 23:42:00
1:56 PM,80.6,66.2,61,29.99,10.0,North,6.9,-,N/A,,Mostly Cloudy,10,2013-10-10 23:56:00
2:18 PM,80.6,66.2,61,29.99,10.0,WNW,10.4,-,N/A,,Mostly Cloudy,290,2013-10-11 00:18:00
2:56 PM,83.8,68.0,59,29.92,10.0,WNW,8.1,-,N/A,,Overcast,290,2013-10-11 00:56:00
3:48 PM,78.8,66.2,65,29.99,10.0,NNE,11.5,-,N/A,,Scattered Clouds,30,2013-10-11 01:48:00
3:56 PM,81.0,66.9,62,29.92,10.0,NNE,10.4,-,N/A,,Partly Cloudy,20,2013-10-11 01:56:00
4:23 PM,78.8,66.2,65,29.99,10.0,NNE,8.1,-,N/A,,Mostly Cloudy,20,2013-10-11 02:23:00
4:56 PM,80.6,66.2,61,29.99,10.0,West,8.1,-,N/A,,Mostly Cloudy,280,2013-10-11 02:56:00
5:49 PM,75.2,66.2,73,30.01,10.0,SW,5.8,-,N/A,,Mostly Cloudy,220,2013-10-11 03:49:00
5:56 PM,74.8,65.8,73,29.96,10.0,SSW,5.8,-,N/A,,Mostly Cloudy,210,2013-10-11 03:56:00
6:06 PM,73.4,66.2,78,30.01,10.0,SSW,3.5,-,N/A,,Scattered Clouds,210,2013-10-11 04:06:00
6:46 PM,73.4,66.2,78,30.03,10.0,Calm,Calm,-,N/A,,Mostly Cloudy,0,2013-10-11 04:46:00
6:56 PM,73.9,66.9,79,29.97,10.0,SW,3.5,-,N/A,,Mostly Cloudy,230,2013-10-11 04:56:00
7:56 PM,70.9,68.0,91,29.98,10.0,NNE,4.6,-,N/A,,Partly Cloudy,20,2013-10-11 05:56:00
8:56 PM,70.9,68.0,91,29.98,10.0,NNE,8.1,-,N/A,,Clear,30,2013-10-11 06:56:00
9:56 PM,68.9,66.9,93,29.98,10.0,East,5.8,-,N/A,,Clear,80,2013-10-11 07:56:00
10:56 PM,68.0,65.8,93,29.99,10.0,East,4.6,-,N/A,,Clear,90,2013-10-11 08:56:00
11:56 PM,68.9,66.9,93,29.98,10.0,East,4.6,-,N/A,,Clear,90,2013-10-11 09:56:00